W2CJS Weather Reports


Display with metric or nautical units.
time (UTC)temp
F
wind
direction
speed
MPH
gust
MPH
rain 1hr
in
rain 24hr
in
rain mn
in
humidity
%
barometer
mb
20260509184024 52 234 6.0 14.0 0.00 0.00 0.00 71 1007.3
20260509183003 52 232 6.0 18.0 0.00 0.00 0.00 70 1007.2
20260509182003 52 230 5.0 13.0 0.00 0.00 0.00 70 1007.3
20260509181003 52 219 4.0 9.0 0.00 0.00 0.00 68 1007.3
20260509180003 53 214 3.0 10.0 0.00 0.00 0.00 67 1007.4
20260509175024 53 223 3.0 11.0 0.00 0.00 0.00 66 1007.6
20260509174003 52 232 5.0 15.0 0.00 0.00 0.00 68 1007.7
20260509173003 52 234 4.0 11.0 0.00 0.00 0.00 67 1007.7
20260509172024 52 212 4.0 9.0 0.00 0.00 0.00 68 1007.8
20260509171003 51 226 4.0 11.0 0.00 0.00 0.00 68 1007.9
20260509170003 52 229 6.0 13.0 0.00 0.00 0.00 68 1008.0
20260509165003 53 214 4.0 10.0 0.00 0.00 0.00 66 1008.0
20260509164003 53 217 4.0 11.0 0.00 0.00 0.00 65 1008.0
20260509163003 52 220 4.0 12.0 0.00 0.00 0.00 64 1008.2
20260509162003 52 221 3.0 7.0 0.00 0.00 0.00 66 1008.2
20260509161003 52 239 3.0 11.0 0.00 0.00 0.00 63 1008.4
20260509160003 52 233 3.0 8.0 0.00 0.00 0.00 66 1008.5
20260509155024 52 232 4.0 10.0 0.00 0.00 0.00 63 1008.7
20260509154003 51 232 6.0 14.0 0.00 0.00 0.00 64 1008.7
20260509153003 51 234 5.0 13.0 0.00 0.00 0.00 62 1008.9
20260509152003 51 234 3.0 9.0 0.00 0.00 0.00 57 1008.9
20260509151003 51 234 3.0 7.0 0.00 0.00 0.00 57 1009.0
20260509150024 51 242 3.0 8.0 0.00 0.00 0.00 58 1009.1
20260509145003 51 232 4.0 9.0 0.00 0.00 0.00 57 1009.1
20260509144003 50 228 5.0 12.0 0.00 0.00 0.00 54 1009.2
20260509143003 51 237 6.0 12.0 0.00 0.00 0.00 52 1009.1
20260509142003 51 232 5.0 12.0 0.00 0.00 0.00 50 1009.1
20260509141003 52 230 4.0 14.0 0.00 0.00 0.00 51 1009.0
20260509140003 51 234 5.0 15.0 0.00 0.00 0.00 49 1009.1
20260509135003 51 243 5.0 12.0 0.00 0.00 0.00 49 1009.2
20260509134003 51 240 4.0 11.0 0.00 0.00 0.00 49 1009.3
20260509133003 50 239 4.0 15.0 0.00 0.00 0.00 50 1009.4
20260509132003 49 231 5.0 13.0 0.00 0.00 0.00 51 1009.4
20260509131003 49 230 3.0 10.0 0.00 0.00 0.00 52 1009.4
20260509130003 48 233 4.0 11.0 0.00 0.00 0.00 53 1009.7
20260509125003 47 227 3.0 8.0 0.00 0.00 0.00 59 1009.7
20260509124003 43 226 1.0 5.0 0.00 0.00 0.00 66 1009.6
20260509123003 41 195 0.0 2.0 0.00 0.00 0.00 79 1009.9
20260509122003 39 0 0.0 0.0 0.00 0.00 0.00 84 1009.9
20260509121003 38 0 0.0 0.0 0.00 0.00 0.00 88 1009.9
20260509120003 36 198 1.0 3.0 0.00 0.00 0.00 90 1010.0
20260509115003 33 200 0.0 1.0 0.00 0.00 0.00 91 1010.2
20260509114003 32 0 0.0 0.0 0.00 0.00 0.00 92 1010.1
20260509113003 30 0 0.0 0.0 0.00 0.00 0.00 92 1010.1
20260509112003 30 200 0.0 2.0 0.00 0.00 0.00 92 1010.1
20260509111003 28 200 0.0 2.0 0.00 0.00 0.00 93 1010.2
20260509110003 28 0 0.0 0.0 0.00 0.00 0.00 92 1010.2
20260509105003 27 0 0.0 0.0 0.00 0.00 0.00 92 1010.2
20260509104004 27 0 0.0 0.0 0.00 0.00 0.00 92 1010.1
20260509103024 26 0 0.0 0.0 0.00 0.00 0.00 92 1010.2
20260509102003 26 0 0.0 0.0 0.00 0.00 0.00 91 1010.2
20260509101003 26 0 0.0 0.0 0.00 0.00 0.00 91 1010.2
20260509100024 26 0 0.0 0.0 0.00 0.00 0.00 91 1010.2
20260509095003 26 0 0.0 0.0 0.00 0.00 0.00 91 1010.3
20260509094003 26 0 0.0 0.0 0.00 0.00 0.00 91 1010.2
20260509093003 26 0 0.0 0.0 0.00 0.00 0.00 91 1010.1
20260509092003 26 0 0.0 0.0 0.00 0.00 0.00 90 1010.3
20260509091003 26 0 0.0 0.0 0.00 0.00 0.00 90 1010.3
20260509090003 26 0 0.0 0.0 0.00 0.00 0.00 90 1010.4
20260509085003 27 0 0.0 0.0 0.00 0.00 0.00 90 1010.4
20260509084003 27 0 0.0 0.0 0.00 0.00 0.00 90 1010.4
20260509083003 27 0 0.0 0.0 0.00 0.00 0.00 90 1010.4
20260509082024 27 0 0.0 0.0 0.00 0.00 0.00 90 1010.4
20260509081003 27 0 0.0 0.0 0.00 0.00 0.00 90 1010.4
20260509080003 27 0 0.0 0.0 0.00 0.00 0.00 90 1010.5
20260509075003 27 0 0.0 0.0 0.00 0.00 0.00 90 1010.4
20260509074024 27 0 0.0 0.0 0.00 0.00 0.00 89 1010.5
20260509073003 27 0 0.0 0.0 0.00 0.00 0.00 89 1010.4
20260509072024 27 0 0.0 0.0 0.00 0.00 0.00 88 1010.3
20260509071003 27 0 0.0 0.0 0.00 0.00 0.00 88 1010.4
20260509070024 27 0 0.0 0.0 0.00 0.00 0.00 88 1010.3
20260509065003 28 0 0.0 0.0 0.00 0.00 0.00 88 1010.2
20260509064003 28 0 0.0 0.0 0.00 0.00 0.00 88 1010.4
20260509063003 28 0 0.0 0.0 0.00 0.00 0.00 88 1010.5
20260509062003 28 0 0.0 0.0 0.00 0.00 0.00 87 1010.5
20260509061024 28 0 0.0 0.0 0.00 0.00 0.00 87 1010.6
20260509060004 28 0 0.0 0.0 0.00 0.00 0.00 87 1010.6
20260509055003 28 0 0.0 0.0 0.00 0.00 0.00 87 1010.6
20260509054024 28 0 0.0 0.0 0.00 0.00 0.00 86 1010.7
20260509053003 28 0 0.0 0.0 0.00 0.00 0.00 86 1010.8
20260509052003 29 0 0.0 0.0 0.00 0.00 0.00 85 1010.8
20260509051003 29 0 0.0 0.0 0.00 0.00 0.00 85 1010.6
20260509050003 29 0 0.0 0.0 0.00 0.00 0.00 85 1010.6
20260509045003 29 0 0.0 0.0 0.00 0.00 0.00 85 1010.7
20260509044003 29 0 0.0 0.0 0.00 0.00 0.00 84 1010.6
20260509043003 29 0 0.0 0.0 0.00 0.00 0.00 84 1010.6
20260509042003 30 0 0.0 0.0 0.00 0.00 0.00 83 1010.5
20260509041003 30 0 0.0 0.0 0.00 0.00 0.00 83 1010.5
20260509040003 30 0 0.0 0.0 0.00 0.00 0.00 83 1010.5
20260509035024 30 212 0.0 2.0 0.00 0.00 0.00 82 1010.5
20260509034003 30 234 1.0 3.0 0.00 0.00 0.00 82 1010.5
20260509033003 30 0 0.0 0.0 0.00 0.00 0.00 82 1010.5
20260509032003 30 0 0.0 0.0 0.00 0.00 0.00 81 1010.5
20260509031003 31 0 0.0 0.0 0.00 0.00 0.00 81 1010.5
20260509030024 31 0 0.0 0.0 0.00 0.00 0.00 81 1010.5
20260509025003 31 0 0.0 0.0 0.00 0.00 0.00 80 1010.6
20260509024003 32 234 0.0 1.0 0.00 0.00 0.00 79 1010.5
20260509023003 32 234 0.0 2.0 0.00 0.00 0.00 78 1010.5
20260509022024 32 234 1.0 2.0 0.00 0.00 0.00 77 1010.4
20260509021003 33 234 0.0 2.0 0.00 0.00 0.00 76 1010.4
20260509020003 33 0 0.0 0.0 0.00 0.00 0.00 75 1010.3
20260509015003 34 0 0.0 0.0 0.00 0.00 0.00 75 1010.1
20260509014003 35 0 0.0 0.0 0.00 0.00 0.00 73 1010.1
20260509013024 35 0 0.0 0.0 0.00 0.00 0.00 72 1009.9
20260509012024 36 0 0.0 0.0 0.00 0.00 0.00 71 1009.8
20260509011003 37 0 0.0 0.0 0.00 0.00 0.00 70 1009.6
20260509010024 37 0 0.0 0.0 0.00 0.00 0.00 68 1009.4
20260509005003 38 0 0.0 0.0 0.00 0.00 0.00 68 1009.3
20260509004003 39 0 0.0 0.0 0.00 0.00 0.00 66 1009.1
20260509003003 40 0 0.0 0.0 0.00 0.00 0.00 63 1009.0
20260509002003 41 0 0.0 0.0 0.00 0.00 0.00 61 1008.9
20260509001003 43 0 0.0 0.0 0.00 0.00 0.00 59 1008.8
20260509000003 44 0 0.0 0.0 0.00 0.00 0.00 54 1008.7
20260508235003 46 231 1.0 4.0 0.00 0.00 0.00 51 1008.7
20260508234003 47 228 3.0 7.0 0.00 0.00 0.00 43 1008.5
20260508233003 47 238 2.0 6.0 0.00 0.00 0.00 44 1008.4
20260508232024 48 226 1.0 4.0 0.00 0.00 0.00 46 1008.4
20260508231003 48 229 2.0 6.0 0.00 0.00 0.00 44 1008.4
20260508230003 48 225 2.0 7.0 0.00 0.00 0.00 42 1008.4
20260508225024 48 222 3.0 7.0 0.00 0.00 0.00 43 1008.3
20260508224003 48 229 3.0 8.0 0.00 0.00 0.00 43 1008.3
20260508223024 48 231 3.0 7.0 0.00 0.00 0.00 44 1008.3
20260508222003 49 227 3.0 6.0 0.00 0.00 0.00 44 1008.3
20260508221003 48 217 4.0 11.0 0.00 0.00 0.00 42 1008.4
20260508220003 48 224 3.0 6.0 0.00 0.00 0.00 46 1008.4
20260508215003 48 230 3.0 8.0 0.00 0.00 0.00 46 1008.5
20260508214003 47 238 3.0 8.0 0.00 0.00 0.00 46 1008.5
20260508213003 48 235 4.0 9.0 0.00 0.00 0.00 44 1008.5
20260508212003 48 266 3.0 8.0 0.00 0.00 0.00 44 1008.5
20260508211024 48 229 2.0 5.0 0.00 0.00 0.00 43 1008.4
20260508210003 48 243 3.0 10.0 0.00 0.00 0.00 44 1008.3
20260508205003 48 310 2.0 5.0 0.00 0.00 0.00 43 1008.3
20260508204024 48 253 3.0 8.0 0.00 0.00 0.00 44 1008.2
20260508203003 48 286 3.0 7.0 0.00 0.00 0.00 44 1008.2
20260508202003 48 288 3.0 8.0 0.00 0.00 0.00 43 1008.2
20260508201003 49 306 3.0 12.0 0.00 0.00 0.00 46 1008.1
20260508200003 48 229 4.0 11.0 0.00 0.00 0.00 43 1008.3
20260508195003 48 231 4.0 11.0 0.00 0.00 0.00 43 1008.3
20260508194003 48 230 4.0 10.0 0.00 0.00 0.00 44 1008.4
20260508193003 47 252 4.0 9.0 0.00 0.00 0.00 43 1008.4
20260508192003 47 343 2.0 7.0 0.00 0.00 0.00 43 1008.4
20260508191003 47 249 3.0 9.0 0.00 0.00 0.00 43 1008.4
20260508190003 47 238 3.0 8.0 0.00 0.00 0.00 44 1008.4
20260508185003 47 239 4.0 11.0 0.00 0.00 0.00 44 1008.4